Temperature
11 11 11 11 11 11 11 11 11 11 11 11 11 11 11 11 11 11 11 11 11 11 11 11 11 11 11 11 10 10 10 10 10 10 10 10 10 10 10 10 10 10 10
11 11 11 11 11 11 11 11 11 11 10 10 10 10 10 10 11 11 11 11 11 11 11 11 11 11 10 10 10 10 10 10 10 10 10 10 10 10 10 10 10 10 10
10 10 10 10 10 10 10 10 10 10 10 10 10 10 10 10 10 10 10 10 10 10 10 10 10 10 10 10 10 10 10 10 10 9 9 9 9 9 9 10 10 9 9
10 10 10 10 10 10 10 10 10 9 9 9 9 9 9 9 10 10 10 10 10 10 10 10 10 10 10 10 9 9 9 9 9 9 9 9 9 9 9 9 9 9 9
9 9 9 9 9 9 9 9 9 9 9 9 9 9 9 9 9 9 9 10 10 10 10 10 10 10 9 9 9 9 9 9 9 9 9 8 8 8 8 8 8 8 8
9 9 9 9 9 9 9 9 8 8 8 8 8 8 8 8 9 9 9 9 9 9 9 9 9 9 9 9 9 9 9 8 8 8 8 8 8 8 8 8 8 8 8
8 8 8 8 8 8 8 8 8 8 8 8 8 8 8 8 8 8 8 8 8 8 8 8 9 9 9 9 8 8 8 8 8 8 8 8 7 7 7 7 7 7 7
8 8 8 8 8 8 8 8 8 7 7 7 7 7 7 7 7 7 7 8 8 8 8 8 8 8 8 8 8 8 8 8 8 7 7 7 7 7 7 7 7 7 7
8 8 8 8 8 8 7 7 7 7 7 7 7 7 7 6 6 6 7 7 7 7 7 7 7 7 7 8 7 8 8 7 7 7 7 6 6 6 6 6 6 6 6
8 7 7 7 7 7 7 7 7 7 7 7 6 7 7 7 6 6 6 6 6 7 7 7 7 7 7 7 7 7 7 7 7 7 6 6 6 6 6 6 6 6 6
7 7 7 7 7 7 7 7 7 7 6 6 6 6 6 6 6 6 5 6 6 6 6 6 6 6 6 6 6 6 6 6 6 6 6 6 5 6 6 5 5 5 5
7 7 7 7 7 6 6 6 6 6 6 6 6 6 6 6 6 6 6 6 5 6 6 6 6 6 6 6 6 6 6 6 6 6 6 5 5 5 5 5 5 5 5
7 7 6 6 6 6 6 6 6 6 6 6 6 6 6 6 6 6 6 5 5 5 5 5 5 5 5 5 5 5 5 5 5 5 5 5 5 5 5 5 4 4 4
6 6 6 6 6 6 6 6 6 6 6 6 6 5 5 5 5 5 5 5 5 4 5 5 5 5 5 5 5 5 5 5 5 5 4 4 4 4 4 4 4 4 4
6 6 6 6 6 6 6 6 5 5 5 5 5 5 5 5 5 5 5 5 5 4 4 4 5 5 5 5 4 4 4 4 4 4 4 4 4 3 3 3 3 3 3
6 6 6 6 6 5 5 5 5 5 5 5 5 5 5 5 4 4 4 4 4 4 4 4 4 4 4 4 4 4 4 3 3 3 3 3 3 3 3 3 3 3 3
5 5 5 5 5 5 5 5 5 5 5 5 5 5 4 4 4 4 4 4 4 4 3 3 4 4 4 4 4 3 3 3 3 3 3 3 2 2 2 2 2 2 2
5 5 5 5 5 5 5 5 5 4 4 4 4 4 4 4 4 3 3 3 3 3 3 3 3 3 3 3 3 3 3 3 3 2 2 2 2 2 2 2 2 2 2
5 5 5 4 4 4 4 4 4 4 4 4 4 4 4 3 3 3 3 3 3 3 3 3 3 2 2 2 2 2 2 2 2 2 2 2 2 1 1 1 1 1 1
4 4 4 4 4 4 4 4 4 4 4 3 3 3 3 3 3 3 3 3 2 2 2 2 2 2 2 2 2 2 2 2 2 2 1 1 1 1 1 1 1 1 1
4 4 4 4 4 4 3 3 3 3 3 3 3 3 3 3 3 2 2 2 2 2 2 2 2 1 1 1 1 1 1 1 1 1 1 1 1 1 1 0 0 0 0
3 3 3 3 3 3 3 3 3 3 3 3 3 2 2 2 2 2 2 2 2 1 1 1 1 1 1 1 1 1 0 0 0 0 0 0 0 -0 -0 -0 -0 -0 -1
3 3 3 3 3 3 3 3 2 2 2 2 2 2 2 2 2 2 1 1 1 1 1 0 0 0 0 0 -0 -0 -0 -0 -0 -0 -1 -0 -0 -0 -0 -1 -1 -1 -1
3 2 3 2 2 2 2 2 2 2 2 2 2 1 1 1 1 1 1 1 1 1 0 -0 -0 -0 -0 -1 -1 -1 -1 -1 -1 -1 -1 -1 -1 -1 -1 -1 -1 -1 -1
2 2 2 2 2 2 2 2 2 1 1 1 1 1 1 1 1 1 0 0 0 0 -0 -0 -1 -1 -1 -1 -1 -1 -1 -2 -2 -2 -2 -2 -2 -2 -1 -1 -1 -1 -2
2 2 1 1 1 1 1 1 1 1 1 1 1 0 0 0 0 0 -0 -0 -0 -0 -1 -1 -1 -1 -1 -1 -2 -2 -2 -2 -2 -3 -2 -3 -3 -3 -3 -2 -2 -2 -2
Wind_Speed
1 2 2 2 2 3 3 3 3 3 3 4 3 3 3 3 2 2 2 3 4 5 5 6 6 7 7 7 7 8 8 8 8 8 8 8 8 7 7 7 6 6 6
2 1 1 1 2 2 3 3 3 3 3 3 3 3 3 2 2 2 2 3 3 4 5 5 6 6 7 8 8 8 8 8 8 7 8 8 7 7 6 5 5 5 5
2 2 2 1 1 2 3 3 3 3 3 3 2 2 3 2 2 2 3 3 3 3 4 4 5 6 7 7 7 7 7 7 7 7 7 7 6 6 5 5 4 3 3
2 2 2 1 1 2 3 2 2 2 2 2 2 1 2 2 2 2 3 4 4 4 3 3 5 5 5 6 6 7 6 7 6 6 6 5 5 4 4 3 3 2 2
2 2 2 1 2 2 2 2 1 2 3 3 3 3 2 2 2 3 4 5 6 6 5 5 6 6 5 5 5 6 6 6 6 5 4 4 3 3 2 2 1 1 1
2 2 2 2 2 2 1 2 2 2 3 3 4 4 3 2 3 3 3 4 5 6 6 6 6 5 5 5 5 5 5 5 5 4 3 2 1 2 2 1 1 1 1
2 2 2 2 2 2 2 3 2 3 2 2 3 2 2 2 2 2 2 3 4 5 6 6 6 6 5 5 4 3 4 4 3 3 2 1 1 1 2 2 2 3 3
1 2 2 2 2 2 2 2 3 2 1 2 3 2 1 1 2 2 1 1 1 3 4 5 5 5 5 4 3 2 2 3 2 2 2 2 2 2 2 3 4 4 4
2 2 3 3 2 3 3 3 3 3 3 1 2 3 3 2 0 1 1 1 1 1 2 3 3 3 3 3 3 2 1 1 2 2 3 3 3 3 4 4 4 4 4
1 2 2 3 3 2 3 3 3 2 4 3 1 1 2 3 2 1 1 1 1 1 1 1 1 1 2 2 2 1 1 1 2 3 4 5 4 4 5 6 6 6 6
0 1 2 3 2 2 2 3 3 3 3 4 3 2 1 1 1 2 2 1 1 0 1 1 1 1 2 2 1 2 2 2 3 5 5 5 5 6 6 7 7 8 8
1 0 1 2 2 2 2 3 3 4 3 3 3 3 3 2 2 2 2 2 2 2 1 1 2 2 3 3 3 3 4 4 5 6 6 6 6 7 7 7 8 9 9
1 2 1 1 2 2 2 3 3 3 4 4 4 3 2 2 2 2 2 2 2 1 1 1 2 3 3 3 4 4 5 5 5 6 7 8 8 8 8 8 9 9 9
3 2 2 2 2 2 2 2 2 2 3 3 4 3 2 2 2 2 3 3 1 1 1 2 1 3 4 3 4 4 5 5 5 6 6 6 6 6 7 7 8 9 9
2 2 2 2 2 2 3 3 2 3 3 3 4 4 3 2 2 2 2 3 3 2 3 3 2 2 3 3 4 4 5 6 6 7 7 7 6 7 7 8 9 9 9
2 2 2 2 2 2 2 2 2 3 3 3 3 4 3 2 2 2 3 2 2 3 3 3 3 2 2 3 4 4 5 6 7 8 8 8 8 8 8 9 9 10 10
3 4 4 3 3 3 2 2 3 3 4 3 3 4 4 4 3 3 3 2 2 2 3 3 2 1 1 2 3 3 5 5 6 8 9 8 8 9 9 10 10 10 11
3 4 4 3 3 3 3 3 3 3 4 4 4 4 4 4 4 3 3 3 3 3 3 4 2 1 2 2 2 3 4 5 5 7 8 9 9 9 10 10 11 11 11
3 3 3 4 3 3 3 3 4 3 3 4 4 4 5 5 5 4 4 4 3 3 3 3 3 2 2 1 1 2 3 3 5 7 8 8 9 10 10 11 11 11 12
3 3 4 4 4 4 4 3 3 3 3 3 3 4 4 5 6 6 5 5 4 3 3 3 2 2 2 1 1 2 3 2 3 5 6 7 9 10 11 11 12 12 13
3 3 4 3 3 3 4 4 4 4 4 3 3 3 4 5 6 5 5 5 5 4 3 3 2 2 2 2 2 2 3 3 3 2 3 5 6 7 9 11 11 12 13
2 3 4 4 4 4 5 6 5 4 4 4 3 3 3 3 4 5 5 6 6 5 5 4 3 4 4 3 2 2 3 2 3 2 2 4 4 4 7 9 12 13 13
3 3 4 4 5 5 6 6 6 4 4 4 4 3 3 3 3 3 3 3 4 6 6 5 5 5 5 5 4 3 4 4 4 3 2 5 3 5 7 10 13 13 13
3 3 4 4 4 5 6 6 6 4 3 4 4 4 4 4 4 4 3 3 3 3 4 4 5 5 5 4 4 5 4 3 3 3 2 4 4 4 6 9 12 12 12
3 3 4 4 4 5 6 7 5 3 3 4 4 4 4 4 5 5 4 4 3 3 3 4 4 4 4 4 3 1 1 2 4 3 2 2 3 4 5 5 8 10 11
3 3 3 4 5 5 6 6 5 4 4 3 3 3 5 4 5 5 4 5 4 4 3 2 2 2 2 2 3 3 3 3 2 3 2 2 2 2 3 3 4 7 8
Wind_Direction
91 71 64 65 79 96 106 99 97 101 100 97 98 104 98 97 97 109 116 131 145 152 154 152 151 151 152 147 139 131 126 120 117 115 113 112 108 106 101 95 91 86 81
121 99 83 78 72 87 106 115 121 115 109 105 94 90 97 103 101 97 104 109 123 146 153 156 156 151 147 144 140 134 130 125 120 118 115 113 111 109 107 103 95 88 84
132 121 133 116 93 104 103 105 105 104 105 101 92 80 86 101 107 93 99 105 107 125 145 148 145 149 147 144 145 142 137 130 125 122 119 114 111 110 106 102 98 86 84
145 138 143 143 123 116 113 117 125 117 115 106 90 68 66 82 91 93 93 101 103 101 107 127 134 133 142 145 143 146 146 137 130 126 120 119 117 115 111 106 102 95 80
169 152 150 155 137 121 120 141 127 129 119 105 89 68 53 57 60 74 80 90 97 96 93 93 102 101 109 130 134 135 134 132 129 129 126 126 134 139 134 127 127 109 83
171 140 137 149 141 132 129 139 138 122 123 114 89 64 43 38 55 59 74 86 93 94 92 95 96 89 94 103 115 122 129 126 134 135 138 134 143 185 201 209 224 252 284
164 147 140 142 142 156 164 154 143 131 124 126 104 73 34 35 60 56 62 75 86 94 92 91 89 88 85 88 98 122 138 137 141 146 147 146 175 246 245 246 253 265 276
176 173 160 167 161 154 151 161 151 150 139 132 134 127 90 359 22 36 60 79 72 91 92 96 97 92 88 82 71 88 141 144 159 185 195 211 244 260 285 274 265 269 275
198 190 181 169 172 168 176 177 165 159 166 162 137 150 158 201 299 359 31 62 77 97 90 97 100 104 104 90 73 55 64 176 204 219 233 241 248 267 275 285 287 282 283
200 183 175 172 175 179 179 181 170 170 166 174 148 106 147 150 164 191 332 358 55 93 158 111 117 118 124 112 92 47 322 277 255 254 257 256 256 266 277 278 285 284 280
231 193 173 166 171 176 185 179 167 174 174 174 173 167 141 115 154 176 215 253 321 276 229 209 187 184 185 175 184 220 253 267 270 266 267 265 264 268 273 278 278 281 280
240 202 179 171 174 176 187 188 178 176 177 170 168 170 170 167 182 176 193 218 238 255 254 234 205 200 207 206 214 226 244 256 268 273 273 272 273 274 276 278 281 281 281
236 226 207 194 189 186 185 181 176 182 179 177 176 175 176 183 179 171 177 201 227 263 259 246 227 215 212 218 227 230 243 252 264 275 279 278 278 279 279 282 285 287 287
221 217 207 201 194 186 183 174 180 189 178 181 184 176 176 182 170 177 179 173 196 264 263 249 242 222 218 223 229 229 242 252 263 272 279 283 288 290 290 290 291 290 289
214 206 202 200 188 183 183 178 186 193 186 189 185 180 184 186 175 179 172 171 173 217 252 245 239 228 229 228 234 232 240 250 260 267 273 274 278 283 285 287 289 289 286
204 201 203 204 196 188 180 179 189 197 189 199 187 177 188 184 178 176 174 174 184 201 237 242 236 239 240 249 251 255 252 257 262 265 271 272 275 278 280 279 281 284 282
204 202 197 194 192 192 190 186 202 193 183 185 184 184 196 183 182 182 174 177 192 193 230 262 258 246 244 246 279 271 267 262 263 266 270 271 273 274 276 279 278 279 279
213 207 195 189 193 196 194 190 196 197 188 190 196 194 202 188 184 187 183 186 201 203 208 237 260 254 253 248 259 265 273 266 267 269 272 273 271 272 276 276 275 274 274
218 208 195 193 197 199 199 200 196 200 201 204 201 196 201 186 195 195 190 195 199 200 194 204 238 252 263 263 268 282 284 277 278 274 273 272 271 275 278 277 275 274 272
216 210 207 206 203 203 203 203 198 197 205 212 209 203 203 197 199 196 198 199 191 185 182 190 218 244 251 263 244 272 294 287 288 288 277 277 278 277 278 278 274 272 272
222 213 205 208 207 205 205 199 199 200 200 205 212 212 214 209 207 205 204 195 186 188 190 201 221 244 249 254 251 255 273 288 288 270 276 284 285 281 281 279 275 272 273
228 212 207 204 209 218 214 210 205 201 201 200 208 211 215 214 213 214 214 209 199 198 202 213 226 231 240 238 236 256 262 283 280 262 271 286 282 274 277 276 275 276 276
227 222 216 206 212 219 216 211 208 201 201 206 206 204 214 214 209 198 209 218 226 231 225 215 220 232 234 229 218 238 250 260 269 271 274 278 278 271 277 279 279 278 278
222 225 223 215 217 223 216 211 204 196 195 206 208 208 206 211 209 197 192 203 223 236 233 221 221 233 233 222 218 227 236 252 283 283 248 262 274 273 290 286 278 276 282
225 227 222 213 216 226 218 210 203 192 199 211 212 208 205 210 213 204 194 202 219 241 242 226 236 246 248 245 228 207 222 256 285 284 241 243 272 292 289 278 280 285 288
224 227 227 220 216 221 217 208 199 192 200 206 210 209 208 212 220 214 203 200 215 227 211 213 238 262 269 254 236 216 214 236 269 271 234 236 271 302 298 281 283 294 294
Height
1520 1521 1522 1523 1524 1525 1526 1527 1529 1530 1531 1533 1535 1536 1538 1539 1541 1542 1544 1545 1547 1548 1549 1550 1551 1552 1553 1554 1555 1556 1556 1557 1558 1559 1559 1560 1560 1561 1561 1561 1562 1562 1562
1518 1519 1520 1521 1522 1523 1524 1525 1527 1528 1529 1531 1532 1534 1536 1538 1539 1541 1542 1543 1545 1546 1548 1549 1550 1551 1552 1553 1554 1554 1555 1556 1557 1557 1558 1558 1559 1560 1560 1560 1561 1561 1561
1516 1516 1518 1518 1519 1520 1522 1523 1524 1526 1527 1529 1530 1532 1534 1535 1537 1539 1540 1541 1543 1544 1546 1547 1548 1549 1550 1551 1552 1553 1554 1554 1555 1556 1556 1557 1558 1558 1559 1559 1559 1559 1559
1514 1515 1515 1516 1517 1518 1519 1521 1522 1523 1525 1526 1528 1530 1532 1533 1535 1536 1538 1539 1540 1542 1543 1545 1546 1547 1548 1549 1550 1551 1552 1552 1553 1554 1554 1555 1556 1556 1557 1557 1557 1557 1558
1512 1512 1513 1514 1515 1516 1517 1518 1520 1521 1523 1524 1526 1527 1529 1531 1532 1533 1535 1536 1538 1539 1541 1542 1544 1545 1546 1547 1548 1549 1550 1550 1551 1552 1552 1553 1554 1554 1555 1555 1555 1555 1555
1509 1510 1511 1512 1513 1514 1515 1516 1517 1519 1521 1522 1523 1525 1527 1528 1529 1531 1532 1534 1535 1536 1538 1540 1541 1543 1544 1545 1545 1546 1547 1548 1549 1550 1550 1551 1551 1552 1552 1552 1553 1553 1553
1507 1507 1508 1509 1510 1511 1512 1514 1515 1516 1518 1519 1521 1523 1524 1526 1527 1528 1529 1531 1532 1534 1536 1537 1538 1540 1541 1542 1543 1544 1545 1545 1546 1547 1548 1548 1549 1549 1550 1550 1550 1550 1551
1504 1505 1506 1507 1508 1509 1510 1511 1512 1514 1515 1516 1518 1520 1521 1524 1523 1525 1526 1528 1530 1531 1533 1534 1536 1537 1538 1539 1540 1541 1542 1543 1544 1544 1545 1546 1546 1547 1547 1547 1548 1547 1548
1502 1503 1503 1504 1505 1506 1507 1509 1510 1511 1512 1514 1516 1518 1519 1519 1520 1522 1523 1525 1527 1528 1530 1531 1533 1534 1535 1536 1537 1538 1539 1540 1540 1541 1542 1543 1543 1544 1544 1544 1544 1544 1544
1499 1500 1501 1502 1503 1504 1505 1506 1508 1509 1510 1511 1513 1514 1516 1517 1518 1519 1521 1522 1524 1525 1527 1528 1530 1531 1532 1533 1534 1535 1536 1537 1537 1538 1539 1539 1540 1540 1540 1541 1541 1541 1541
1496 1497 1498 1499 1500 1501 1502 1503 1505 1506 1507 1508 1510 1511 1512 1514 1515 1516 1517 1518 1520 1522 1524 1525 1526 1527 1529 1530 1531 1532 1533 1533 1534 1535 1535 1536 1536 1536 1536 1536 1536 1536 1537
1494 1494 1495 1496 1497 1498 1499 1500 1502 1503 1504 1505 1507 1508 1509 1510 1512 1513 1514 1515 1516 1519 1520 1522 1523 1524 1525 1526 1527 1528 1529 1530 1530 1531 1531 1532 1531 1531 1531 1532 1532 1532 1532
1490 1491 1492 1493 1494 1495 1496 1498 1499 1500 1501 1502 1503 1505 1506 1508 1509 1510 1511 1512 1513 1515 1516 1518 1519 1520 1521 1522 1523 1524 1525 1526 1526 1527 1527 1527 1527 1526 1526 1526 1527 1527 1527
1488 1489 1489 1490 1491 1492 1493 1494 1496 1497 1498 1499 1500 1501 1503 1504 1506 1507 1508 1509 1510 1511 1512 1514 1515 1516 1517 1518 1519 1520 1520 1521 1522 1522 1522 1522 1522 1522 1521 1521 1521 1521 1521
1485 1486 1486 1487 1488 1489 1490 1491 1492 1493 1494 1495 1497 1498 1499 1501 1502 1504 1505 1507 1508 1507 1508 1509 1511 1512 1513 1514 1514 1515 1516 1516 1517 1517 1517 1517 1517 1517 1517 1517 1517 1516 1516
1482 1482 1483 1484 1485 1486 1487 1487 1489 1490 1491 1492 1493 1494 1496 1497 1499 1500 1502 1503 1504 1505 1505 1505 1507 1508 1508 1509 1510 1510 1511 1511 1512 1512 1512 1512 1512 1512 1511 1512 1512 1511 1511
1478 1479 1480 1481 1482 1483 1483 1484 1485 1486 1487 1488 1489 1491 1492 1493 1495 1496 1498 1499 1501 1502 1501 1502 1503 1503 1504 1504 1505 1506 1506 1506 1506 1507 1507 1507 1506 1506 1506 1506 1506 1505 1505
1475 1476 1476 1477 1478 1479 1480 1481 1482 1483 1484 1485 1486 1487 1488 1489 1491 1492 1494 1495 1497 1497 1498 1498 1498 1499 1499 1500 1500 1500 1501 1501 1501 1501 1501 1501 1501 1500 1500 1500 1499 1499 1499
1471 1472 1473 1474 1475 1475 1476 1477 1478 1479 1480 1481 1482 1483 1484 1485 1487 1488 1490 1491 1492 1493 1494 1494 1494 1495 1495 1495 1495 1496 1496 1496 1496 1497 1496 1496 1496 1495 1494 1494 1494 1493 1493
1468 1468 1469 1470 1471 1472 1473 1474 1475 1476 1477 1478 1479 1480 1481 1482 1483 1484 1486 1487 1488 1489 1490 1490 1490 1490 1490 1491 1491 1491 1491 1491 1491 1492 1491 1491 1490 1490 1489 1489 1488 1487 1486
1464 1465 1466 1466 1468 1469 1469 1470 1471 1473 1473 1474 1475 1476 1477 1478 1479 1481 1482 1483 1484 1485 1485 1486 1486 1486 1486 1486 1487 1487 1486 1486 1486 1486 1486 1486 1485 1484 1484 1483 1482 1481 1480
1460 1461 1461 1462 1463 1464 1466 1467 1468 1469 1470 1471 1471 1472 1473 1474 1475 1476 1478 1479 1480 1480 1481 1481 1482 1482 1481 1482 1483 1483 1482 1482 1480 1481 1480 1480 1480 1478 1478 1477 1476 1475 1474
1455 1456 1457 1458 1459 1460 1462 1463 1464 1465 1466 1467 1468 1468 1469 1470 1471 1472 1473 1474 1475 1476 1477 1477 1477 1477 1478 1478 1478 1478 1478 1477 1476 1476 1475 1473 1474 1472 1472 1471 1470 1469 1468
1451 1452 1453 1454 1455 1456 1458 1459 1460 1461 1462 1463 1464 1465 1465 1466 1467 1468 1469 1469 1470 1471 1472 1472 1473 1473 1474 1474 1474 1474 1473 1473 1472 1471 1471 1468 1467 1467 1466 1465 1464 1463 1462
1446 1447 1448 1449 1451 1452 1454 1455 1456 1457 1457 1458 1460 1461 1461 1462 1463 1464 1465 1465 1465 1466 1467 1468 1468 1469 1469 1469 1470 1470 1469 1468 1466 1465 1465 1464 1462 1461 1459 1459 1458 1457 1456
1442 1443 1444 1445 1446 1448 1449 1450 1452 1452 1453 1454 1455 1456 1457 1458 1459 1460 1460 1461 1461 1461 1462 1463 1463 1464 1464 1465 1465 1465 1464 1464 1462 1461 1460 1460 1458 1457 1454 1452 1452 1451 1450